World > North America > United States > North Carolina   City of Charlotte, NC

Charlotte, North Carolina Regional Weather

Lat: 35.21N, Lon: 80.94W
Wx Zone: NCZ071Web Search

Helpful Tip: Abbreviated, 7 Day, 14 Day Forecasts. There is a weather forecast for every taste.

Feedback
Charlotte Weather Map
UTC Time: 3/5/2021, 10:34
Your Time:

Charlotte, NC Regional Weather

Expires:202103051100;;501243
ASUS42 KRAH 051010
RWRRAH
NORTH CAROLINA WEATHER ROUNDUP
NATIONAL WEATHER SERVICE RALEIGH NC
500 AM EST FRI MAR 05 2021

NOTE: "FAIR" INDICATES FEW OR NO CLOUDS BELOW 12,000 FEET WITH NO
SIGNIFICANT WEATHER AND/OR OBSTRUCTIONS TO VISIBILITY.


NCZ021-022-025-041-071-084-088-051100-
CENTRAL NORTH CAROLINA
  
CITY           SKY/WX    TMP DP  RH WIND       PRES   REMARKS
CHARLOTTE      FAIR      37  24  59 N7        30.04R WCI  32          
GREENSBORO     FAIR      38  18  44 N5        30.05R WCI  34          
WINSTON-SALEM  FAIR      40  16  37 N9        30.07R WCI  34          
RALEIGH-DURHAM FAIR      35  24  64 NE6       30.05R WCI  30          
FORT BRAGG     CLEAR     40  20  45 N5        30.02R                  
FAYETTEVILLE   FAIR      40  22  48 N6        30.03R                  
BURLINGTON     FAIR      41  17  38 NW10      30.05R                  
ROXBORO        FAIR      36  21  55 N3        30.07R                  
HENDERSON      FAIR      32  21  63 N5        30.05R WCI  28          
LOUISBURG      FAIR      36  25  64 N3        30.07R                  
LAURINBURG     FAIR      38  26  62 N3        30.04R                  
$$
 

SKY/WX - Weather  TMP - Temperature  DP - Dew Point  RH - Relative Humidity
WIND - Wind Direction/Speed PRES - Barometric Pressure VSB - Visibility
WCI - Wind Chill Index E13G22 Wind - East Wind 13 mph/Gusts of 22 mph